Location: Kaarina
(60.4167°N, 22.4167°E)
Time: 11:04:49
(UTC+03:00)

Cosmos 2315 Rocket - Pass Details

Date: 24 August 2019
Orbit: 965 x 1003 km, 82.9° (Epoch: 15 September)

Event Time Altitude Azimuth Distance (km) Brightness Sun altitude
Rises 23:09:11 0° 199° (SSW) 3,714 6.7 -13.1°
Reaches altitude 10° 23:11:43 10° 201° (SSW) 2,765 6.1 -13.3°
Maximum altitude 23:18:04 74° 286° (WNW) 1,037 4.3 -13.8°
Drops below altitude 10° 23:24:25 10° 12° (NNE) 2,757 7.0 -14.2°
Sets 23:26:57 0° 15° (NNE) 3,703 7.7 -14.4°
